Weather History for Providence, RI

Change the Weather History Date:

Sunday, March 10, 2013

  Actual Average Record
Temperature  
Mean Temperature 39 °F 37 °F  
Max Temperature 47 °F 46 °F 69 °F (1977)
Min Temperature 30 °F 28 °F 6 °F (1984)
Degree Days  
Heating Degree Days 26 28  
Month to date heating degree days 270 292  
Since 1 July heating degree days 4091 4354  
Cooling Degree Days 0 0  
Month to date cooling degree days 0 0  
Year to date cooling degree days 0 0  
Moisture  
Dew Point 30 °F    
Average Humidity 73    
Maximum Humidity 92    
Minimum Humidity 53    
Precipitation  
Precipitation 0.00 in 0.16 in 2.32 in (1994)
Month to date precipitation 0.19 1.47  
Year to date precipitation 7.15 8.62  
Snow  
Snow 0.00 in 0.30 in 5.00 in (1928)
Month to date snowfall 2.3 2.5  
Since 1 July snowfall 43.7 30.2  
Snow Depth 0.00 in    
Sea Level Pressure  
Sea Level Pressure 30.36 in    
Wind  
Wind Speed 6 mph (NNE)    
Max Wind Speed 13 mph    
Max Gust Speed 17 mph    
Visibility 10 miles    
Events      
T = Trace of Precipitation, MM = Missing Value Source: NWS Daily Summary

Daily Weather History Graph

Daily Weather History Graph

Search for Another Location

Airport:

Trip Planner

Search our weather history database for the weather conditions in past years. The results will help you decide how hot, cold, wet, or windy it might be!

Date:

Astronomy

Mar. 10, 2013 Rise Set
Actual Time 7:05 AM EDT 6:46 PM EDT
Civil Twilight 6:37 AM EDT 7:14 PM EDT
Nautical Twilight 6:05 AM EDT 7:46 PM EDT
Astronomical Twilight 5:33 AM EDT 8:19 PM EDT
Moon 6:04 AM EDT (3/10) 5:51 PM EDT (3/10)
Length of Visible Light 12h 36m
Length of Day
11h 41m
Waning Crescent, 2% of the Moon is Illuminated
Mar 10
Waning Crescent
Mar 11
New
Mar 19
First Quarter
Mar 27
Full
Apr 3
Last Quarter

Hourly Weather History & Observations

Time (EDT) Temp. Windchill Dew Point Humidity Pressure Visibility Wind Dir Wind Speed Gust Speed Precip Events Conditions
12:51 AM 32.0 °F 24.2 °F 28.0 °F 85% 30.35 in 10.0 mi NNW 9.2 mph - N/A   Clear
1:51 AM 30.9 °F 23.5 °F 27.0 °F 85% 30.35 in 10.0 mi NNW 8.1 mph - N/A   Clear
3:51 AM 30.9 °F 25.2 °F 28.0 °F 89% 30.35 in 10.0 mi NNW 5.8 mph - N/A   Scattered Clouds
4:01 AM 30.2 °F 23.4 °F 28.4 °F 93% 30.35 in 10.0 mi NNW 6.9 mph - N/A   Mostly Cloudy
4:51 AM 32.0 °F 24.8 °F 28.0 °F 85% 30.36 in 10.0 mi North 8.1 mph - N/A   Overcast
5:51 AM 33.1 °F 26.9 °F 28.9 °F 85% 30.37 in 10.0 mi North 6.9 mph - N/A   Overcast
6:51 AM 33.1 °F 26.1 °F 28.9 °F 85% 30.36 in 10.0 mi North 8.1 mph - N/A   Mostly Cloudy
7:51 AM 32.0 °F 25.6 °F 28.0 °F 85% 30.39 in 10.0 mi North 6.9 mph - N/A   Mostly Cloudy
8:19 AM 33.8 °F 28.6 °F 28.4 °F 81% 30.39 in 10.0 mi North 5.8 mph - N/A   Mostly Cloudy
8:51 AM 35.1 °F 28.6 °F 30.0 °F 82% 30.39 in 10.0 mi NNE 8.1 mph - N/A   Mostly Cloudy
9:51 AM 37.9 °F 32.1 °F 30.9 °F 76% 30.40 in 10.0 mi NNE 8.1 mph - N/A   Overcast
10:51 AM 39.0 °F 32.8 °F 30.0 °F 70% 30.41 in 10.0 mi North 9.2 mph - N/A   Overcast
11:51 AM 39.9 °F 37.8 °F 30.0 °F 68% 30.40 in 10.0 mi East 3.5 mph - N/A   Mostly Cloudy
12:14 PM 41.0 °F 35.2 °F 28.4 °F 61% 30.39 in 10.0 mi NNE 9.2 mph - N/A   Scattered Clouds
12:51 PM 43.0 °F - 30.0 °F 60% 30.38 in 10.0 mi Calm Calm - N/A   Scattered Clouds
1:51 PM 45.0 °F 42.6 °F 30.0 °F 56% 30.36 in 10.0 mi Variable 4.6 mph - N/A   Scattered Clouds
2:51 PM 45.0 °F 42.6 °F 28.9 °F 53% 30.35 in 10.0 mi NE 4.6 mph - N/A   Scattered Clouds
3:51 PM 46.0 °F 44.8 °F 30.0 °F 54% 30.34 in 10.0 mi Variable 3.5 mph - N/A   Scattered Clouds
4:51 PM 46.0 °F 44.8 °F 30.0 °F 54% 30.34 in 10.0 mi Variable 3.5 mph - N/A   Scattered Clouds
5:51 PM 43.0 °F 37.2 °F 30.9 °F 62% 30.32 in 10.0 mi SSE 10.4 mph - N/A   Scattered Clouds
6:51 PM 39.0 °F 32.3 °F 30.9 °F 73% 30.34 in 10.0 mi South 10.4 mph - N/A   Scattered Clouds
7:51 PM 37.0 °F 31.6 °F 30.9 °F 79% 30.35 in 10.0 mi South 6.9 mph - N/A   Scattered Clouds
8:51 PM 37.0 °F 31.6 °F 32.0 °F 82% 30.36 in 10.0 mi South 6.9 mph - N/A   Mostly Cloudy
9:51 PM 35.1 °F 30.1 °F 30.9 °F 85% 30.35 in 9.0 mi South 5.8 mph - N/A   Scattered Clouds
10:51 PM 35.1 °F 32.2 °F 32.0 °F 89% 30.35 in 10.0 mi SSW 3.5 mph - N/A   Mostly Cloudy
11:51 PM 36.0 °F 33.3 °F 32.0 °F 86% 30.34 in 10.0 mi South 3.5 mph - N/A   Mostly Cloudy
12:01 AM 35.6 °F 30.7 °F 32.0 °F 87% 30.33 in 10.0 mi South 5.8 mph - N/A   Overcast
12:51 AM 36.0 °F 33.3 °F 33.1 °F 89% 30.32 in 10.0 mi SSW 3.5 mph - N/A   Overcast